Date String (YYYY-MM-DD hh:mm:ss) UTC,Instrument flags,absolute air pressure of the measurement (hPa),sample flow rate (lpm),inlet stack bypass flow (lpm),air temperature of the measurement (°C),ambient temperature measured by the external sensor (°C),aerosol sample conditioner tube jacket temperature (°C),OPC LED temperature (°C),internal box temperature (°C),relative humidity of the measurement (%),span deviation,mass concentration of particles derived from Lorenz-Mie calculation of OPC scattering (μg/m³),mass concentration of particles derived from Lorenz-Mie calculation of OPC scattering (μg/m³),mass concentration of particles derived from Lorenz-Mie calculation of OPC scattering (μg/m³)
DateTimeUTC,F1_M11,P_M11,Q1_M11,Q2_M11,T1_M11,T2_M11,T3_M11,T4_M11,T5_M11,U1_M11,ZSPAN_M11,X0_M11,X2_M11,X1_M11
2024-05-15 16:00:00,SystemResetWarning,0827.8,4.99,000.00,024.6,023.9,000.0,032.8,026.4,030.4,0000.2,0009.42,0005.72,0005.14
2024-05-15 16:01:00,SystemResetWarning,0827.8,5.00,000.00,024.6,024.0,000.0,032.9,026.5,029.6,0000.0,0009.44,0005.69,0005.10
2024-05-15 16:02:00,SystemResetWarning,0827.8,4.99,000.00,024.7,024.1,000.0,032.9,026.5,029.6,0000.2,0009.33,0005.61,0005.04
2024-05-15 16:03:00,SystemResetWarning,0827.8,5.00,000.00,024.7,024.1,000.0,032.9,026.6,029.3,0001.2,0009.33,0005.58,0005.03
2024-05-15 16:04:00,SystemResetWarning,0827.7,5.00,000.00,024.7,024.2,000.0,032.9,026.6,030.0,0001.7,0008.95,0005.58,0005.02
2024-05-15 16:05:00,SystemResetWarning,0827.8,5.00,000.00,024.8,024.2,000.0,032.9,026.6,030.9,0001.5,0008.97,0005.59,0005.00
2024-05-15 16:06:00,SystemResetWarning,0827.8,5.02,000.00,024.8,024.3,000.0,032.9,026.7,029.4,0001.2,0008.96,0005.60,0005.02
2024-05-15 16:07:00,SystemResetWarning,0827.8,5.00,000.00,024.9,024.3,000.0,033.0,026.7,029.4,0000.4,0009.06,0005.67,0005.08
2024-05-15 16:08:00,SystemResetWarning,0827.8,5.00,000.00,024.9,024.4,000.0,033.0,026.7,029.7,-000.1,0009.16,0005.74,0005.14
2024-05-15 16:09:00,SystemResetWarning,0827.8,4.99,000.00,024.9,024.4,000.0,033.0,026.8,029.0,0000.2,0009.45,0005.83,0005.20
2024-05-15 16:10:00,SystemResetWarning,0827.8,5.00,000.00,025.0,024.4,000.0,033.1,026.8,029.2,0000.1,0009.84,0005.93,0005.27
2024-05-15 16:11:00,SystemResetWarning,0827.8,5.00,000.00,025.0,024.5,000.0,033.1,026.8,029.7,0000.1,0009.92,0006.03,0005.34
2024-05-15 16:12:00,SystemResetWarning,0827.8,5.01,000.00,025.0,024.5,000.0,033.1,026.9,028.2,-000.5,0009.98,0006.09,0005.40
2024-05-15 16:13:00,SystemResetWarning,0827.8,5.02,000.00,025.1,024.5,000.0,033.1,026.9,027.9,-000.8,0010.05,0006.11,0005.44
2024-05-15 16:14:00,SystemResetWarning,0827.7,5.00,000.00,025.1,024.6,000.0,033.2,026.9,028.1,-000.6,0010.15,0006.15,0005.48
2024-05-15 16:15:00,SystemResetWarning,0827.8,5.00,000.00,025.1,024.6,000.0,033.2,027.0,027.8,-000.8,0010.12,0006.13,0005.48
2024-05-15 16:16:00,SystemResetWarning,0827.8,4.99,000.00,025.2,024.6,000.0,033.2,027.0,027.9,-000.9,0010.12,0006.11,0005.46
2024-05-15 16:17:00,SystemResetWarning,0827.7,4.98,000.00,025.0,023.3,000.0,033.3,026.3,028.4,-001.0,0010.19,0006.11,0005.44
2024-05-15 16:18:00,SystemResetWarning,0827.7,5.00,000.00,024.6,021.6,000.0,033.3,025.3,029.9,-000.4,0010.29,0006.10,0005.40
2024-05-15 16:19:00,SystemResetWarning,0827.7,5.02,000.00,024.3,021.4,000.0,033.3,025.1,030.3,-000.1,0010.15,0006.00,0005.34
2024-05-15 16:20:00,SystemResetWarning,0827.7,5.00,000.00,024.2,021.8,000.0,033.1,025.2,030.3,-000.2,0010.07,0006.00,0005.31
2024-05-15 16:21:00,SystemResetWarning,0827.7,4.99,000.00,024.2,022.2,000.0,033.0,025.5,030.8,-000.1,0010.25,0006.01,0005.28
2024-05-15 16:22:00,SystemResetWarning,0827.7,5.00,000.00,024.2,022.5,000.0,032.9,025.7,031.9,-000.2,0010.38,0005.95,0005.24
2024-05-15 16:23:00,SystemResetWarning,0827.7,5.00,000.00,024.3,022.8,000.0,032.8,025.9,032.7,0000.3,0010.36,0005.94,0005.23
2024-05-15 16:24:00,SystemResetWarning,0827.7,5.01,000.00,024.3,023.1,000.0,032.8,026.0,031.8,0000.5,0010.35,0005.95,0005.23
2024-05-15 16:25:00,SystemResetWarning,0827.7,5.01,000.00,024.3,023.3,000.0,032.8,026.1,030.9,0000.7,0010.39,0006.00,0005.27
2024-05-15 16:26:00,SystemResetWarning,0827.7,5.00,000.00,024.4,023.5,000.0,032.8,026.1,031.4,0000.9,0010.43,0006.05,0005.33
2024-05-15 16:27:00,SystemResetWarning,0827.7,4.99,000.00,024.4,023.6,000.0,032.8,026.2,031.1,0000.5,0010.71,0006.11,0005.41
2024-05-15 16:28:00,SystemResetWarning,0827.7,4.99,000.00,024.5,023.7,000.0,032.8,026.3,030.1,0000.6,0010.91,0006.15,0005.48
2024-05-15 16:29:00,SystemResetWarning,0827.7,5.01,000.00,024.5,023.9,000.0,032.8,026.3,030.1,0001.1,0010.78,0006.19,0005.55
2024-05-15 16:30:00,SystemResetWarning,0827.7,5.00,000.00,024.6,023.9,000.0,032.8,026.4,030.0,0001.0,0010.98,0006.35,0005.67
2024-05-15 16:31:00,SystemResetWarning,0827.8,4.98,000.00,024.6,024.0,000.0,032.8,026.4,031.2,0001.1,0011.00,0006.40,0005.76
2024-05-15 16:32:00,SystemResetWarning,0827.7,5.00,000.00,024.7,024.1,000.0,032.8,026.5,032.0,0001.1,0010.54,0006.41,0005.82
2024-05-15 16:33:00,SystemResetWarning,0827.7,5.00,000.00,024.7,024.2,000.0,032.9,026.6,030.7,0001.5,0010.93,0006.50,0005.89
2024-05-15 16:34:00,SystemResetWarning,0827.7,5.01,000.00,024.8,024.2,000.0,032.9,026.7,029.9,0001.8,0011.13,0006.58,0005.98
2024-05-15 16:35:00,SystemResetWarning,0827.7,5.00,000.00,024.8,024.3,000.0,032.9,026.7,031.3,0001.6,0011.33,0006.69,0006.07
2024-05-15 16:36:00,SystemResetWarning,0827.7,5.00,000.00,024.8,024.3,000.0,032.9,026.7,030.5,0001.1,0011.42,0006.74,0006.13
2024-05-15 16:37:00,SystemResetWarning,0827.8,5.00,000.00,024.9,024.4,000.0,033.0,026.7,030.1,0000.5,0011.44,0006.81,0006.20
2024-05-15 16:38:00,SystemResetWarning,0827.8,4.99,000.00,024.9,024.4,000.0,033.0,026.8,030.1,0000.8,0011.31,0006.90,0006.27
2024-05-15 16:39:00,SystemResetWarning,0827.8,5.00,000.00,025.0,024.5,000.0,033.0,026.8,030.0,0000.8,0011.19,0007.03,0006.36
2024-05-15 16:40:00,SystemResetWarning,0827.8,4.99,000.00,025.0,024.5,000.0,033.0,026.9,030.6,0000.3,0012.01,0007.16,0006.45
2024-05-15 16:41:00,SystemResetWarning,0827.8,5.02,000.00,025.0,024.6,000.0,033.1,026.9,029.7,-000.0,0012.79,0007.18,0006.51
2024-05-15 16:42:00,SystemResetWarning,0827.8,4.99,000.00,025.1,024.6,000.0,033.1,026.9,029.2,-000.4,0013.02,0007.27,0006.59
2024-05-15 16:43:00,SystemResetWarning,0827.8,4.99,000.00,025.1,024.6,000.0,033.1,026.9,029.4,-000.2,0013.63,0007.36,0006.69
2024-05-15 16:44:00,SystemResetWarning,0827.7,5.00,000.00,025.0,023.7,000.0,033.2,026.5,029.7,-001.2,0013.53,0007.44,0006.76
2024-05-15 16:45:00,SystemResetWarning,0827.7,4.99,000.00,024.6,021.7,000.0,033.3,025.4,031.0,-001.4,0013.67,0007.50,0006.81
2024-05-15 16:46:00,SystemResetWarning,0827.7,5.01,000.00,024.3,021.3,000.0,033.2,025.1,030.6,-001.2,0013.60,0007.50,0006.82
2024-05-15 16:47:00,SystemResetWarning,0827.7,5.02,000.00,024.2,021.6,000.0,033.1,025.2,030.5,-000.7,0013.56,0007.56,0006.87
2024-05-15 16:48:00,SystemResetWarning,0827.7,5.00,000.00,024.2,022.0,000.0,032.9,025.4,031.5,-000.0,0013.75,0007.59,0006.88
2024-05-15 16:49:00,SystemResetWarning,0827.8,4.99,000.00,024.2,022.4,000.0,032.9,025.6,031.1,0000.1,0014.04,0007.57,0006.87
2024-05-15 16:50:00,SystemResetWarning,0827.8,5.00,000.00,024.2,022.7,000.0,032.8,025.8,031.2,0000.2,0014.03,0007.58,0006.91
2024-05-15 16:51:00,SystemResetWarning,0827.8,5.00,000.00,024.3,023.0,000.0,032.7,025.9,031.3,0000.3,0013.49,0007.63,0006.97
2024-05-15 16:52:00,SystemResetWarning,0827.9,5.01,000.00,024.3,023.2,000.0,032.7,026.0,031.1,0000.6,0012.73,0007.70,0007.01
2024-05-15 16:53:00,SystemResetWarning,0827.9,5.00,000.00,024.4,023.4,000.0,032.7,026.1,031.9,0001.4,0012.78,0007.74,0007.03
2024-05-15 16:54:00,SystemResetWarning,0827.8,5.00,000.00,024.4,023.6,000.0,032.7,026.2,030.8,0001.5,0013.31,0007.74,0007.02
2024-05-15 16:55:00,SystemResetWarning,0827.8,4.99,000.00,024.5,023.7,000.0,032.7,026.3,031.2,0001.8,0013.00,0007.74,0007.04
2024-05-15 16:56:00,SystemResetWarning,0827.8,5.00,000.00,024.5,023.9,000.0,032.7,026.4,030.5,0001.9,0013.61,0007.75,0007.05
2024-05-15 16:57:00,SystemResetWarning,0827.8,5.00,000.00,024.6,024.0,000.0,032.7,026.4,030.2,0001.8,0013.52,0007.77,0007.09
2024-05-15 16:58:00,SystemResetWarning,0827.8,5.00,000.00,024.6,024.1,000.0,032.8,026.5,030.2,0001.7,0013.63,0007.77,0007.09
2024-05-15 16:59:00,SystemResetWarning,0827.8,5.01,000.00,024.7,024.2,000.0,032.8,026.6,029.4,0001.1,0013.84,0007.77,0007.08
